TIANMU-1 19

Last updated on Sat Aug 15 2026 00:02:41 GMT+0000 (Coordinated Universal Time)

1 58660U 23208A 26226.61470176 .00004601 00000+0 14970-3 0 9994 2 58660 97.4551 343.2610 0006470 106.2840 253.9114 15.32372697146275
UTC large
Height (km)
Speed (km/s)
/
Latitude / Longitude
Inclination (degrees)
Orbital Period (minutes)
Azimuth
Elevation
Range (km)
Doppler Factor

Next 0 passes for location: London (51.5072 / 0.1276)

No passes found over London.
TIANMU-1 19